This demonstration page uses our WeatherBlox Daily Observations layout. Learn more.

Left ArrowRight Arrow

39.29038, -76.61219

Hourly Observations for October 14, 2020

Temp ( °F °C ) Dew Point ( °F °C ) Humidity (%) Winds ( mph kmh ) Pressure ( in mb ) Visibility ( mi km ) Precip ( " mm )
12:54 am 00:54 Clear 52 11.1 45 7.2 77 77 WSW 3 6 29.99 1016 10 16 0.00 0.00
1:54 am 01:54 Clear 51 10.6 44 6.7 77 77 VRB 3 6 30.00 1016 10 16 0.00 0.00
2:54 am 02:54 Clear 50 10 44 6.7 80 80 Calm 30.00 1016 10 16 0.00 0.00
3:54 am 03:54 Clear 45 7.2 43 6.1 93 93 WSW 3 6 29.99 1016 10 16 0.00 0.00
4:54 am 04:54 Clear 45 7.2 42 5.6 90 90 WSW 5 7 30.01 1016 10 16 0.00 0.00
5:54 am 05:54 Clear 49 9.4 43 6.1 80 80 SW 3 6 30.03 1017 10 16 0.00 0.00
6:54 am 06:54 Clear 46 7.8 43 6.1 89 89 WSW 3 6 30.03 1017 10 16 0.00 0.00
7:54 am 07:54 Sunny 48 8.9 44 6.7 86 86 Calm 30.05 1018 10 16 0.00 0.00
8:54 am 08:54 Mostly Sunny 56 13.3 48 8.9 75 75 WSW 5 7 30.07 1018 10 16 0.00 0.00
9:54 am 09:54 Mostly Sunny 61 16.1 48 8.9 63 63 WSW 9 15 30.07 1018 10 16 0.00 0.00
10:54 am 10:54 Mostly Sunny 66 18.9 47 8.3 50 50 WSW 12 19 30.06 1018 10 16 0.00 0.00
11:54 am 11:54 Partly Cloudy 69 20.6 45 7.2 42 42 W 12 19 30.05 1018 10 16 0.00 0.00
12:54 pm 12:54 Partly Cloudy 71 21.7 45 7.2 39 39 WNW 13 20 30.02 1017 10 16 0.00 0.00
1:54 pm 13:54 Partly Cloudy 73 22.8 46 7.8 38 38 W 8 13 30.01 1016 10 16 0.00 0.00
2:54 pm 14:54 Mostly Cloudy 74 23.3 46 7.8 37 37 WSW 8 13 29.99 1016 10 16 0.00 0.00
3:54 pm 15:54 Mostly Cloudy 74 23.3 45 7.2 36 36 WSW 12 19 29.99 1016 10 16 0.00 0.00
4:54 pm 16:54 Mostly Sunny 73 22.8 45 7.2 37 37 W 8 13 29.99 1016 10 16 0.00 0.00
5:54 pm 17:54 Mostly Sunny 72 22.2 47 8.3 41 41 Calm 29.99 1016 10 16 0.00 0.00
6:54 pm 18:54 Mostly Clear 67 19.4 49 9.4 53 53 S 5 7 30.01 1016 10 16 0.00 0.00
7:54 pm 19:54 Clear 60 15.6 52 11.1 75 75 Calm 30.01 1016 10 16 0.00 0.00
8:54 pm 20:54 Clear 57 13.9 52 11.1 83 83 Calm 30.01 1016 10 16 0.00 0.00
9:54 pm 21:54 Clear 55 12.8 51 10.6 87 87 Calm 30.02 1017 10 16 0.00 0.00
10:54 pm 22:54 Mostly Clear 59 15 50 10 72 72 SSW 3 6 30.03 1017 10 16 0.00 0.00
11:54 pm 23:54 Partly Cloudy 59 15 50 10 72 72 SSW 6 9 30.02 1017 10 16 0.00 0.00

Powered by AerisWeather